When you browse on this site, cookies collect data to enhance your experience and personalize the content and advertising you see.
Visit our Privacy Policy to learn more. By continuing to use the site, you agree to this use of cookies and data.
  • In United Kingdom
  • List of Countries
  • For 7 days
  • Water Temperature
  • Weather Map
  • Weather Widgets
  • user-avatar
    Login

    Hourly Weather Pajsandu

    Today, 20 September, Friday

    Time Temperature Precipitation Wind Pressure Humidity
    00:00 +7°C° 0 mm 3 mps 762 mmHg 61%
    01:00 +5°C° 0 mm 3 mps 762 mmHg 62%
    02:00 +4°C° 0 mm 3 mps 763 mmHg 63%
    03:00 +5°C° 0 mm 2 mps 763 mmHg 63%
    04:00 +5°C° 0 mm 2 mps 763 mmHg 63%
    05:00 +5°C° 0 mm 1 mps 763 mmHg 63%
    06:00 +7°C° 0 mm 1 mps 764 mmHg 61%
    07:00 +9°C° 0 mm 1 mps 764 mmHg 59%
    08:00 +11°C° 0 mm 1 mps 765 mmHg 57%
    09:00 +13°C° 0 mm 2 mps 765 mmHg 52%
    10:00 +14°C° 0 mm 2 mps 765 mmHg 48%
    11:00 +16°C° 0 mm 2 mps 765 mmHg 43%
    12:00 +17°C° 0 mm 2 mps 765 mmHg 42%
    13:00 +18°C° 0 mm 2 mps 765 mmHg 42%
    14:00 +18°C° 0 mm 2 mps 764 mmHg 41%
    15:00 +17°C° 0 mm 2 mps 764 mmHg 47%
    16:00 +18°C° 0 mm 1 mps 764 mmHg 53%
    17:00 +16°C° 0 mm 1 mps 764 mmHg 59%
    18:00 +14°C° 0 mm 1 mps 764 mmHg 58%
    19:00 +13°C° 0 mm 1 mps 765 mmHg 57%
    20:00 +10°C° 0 mm 2 mps 765 mmHg 56%
    21:00 +9°C° 0 mm 2 mps 766 mmHg 59%
    22:00 +8°C° 0 mm 2 mps 766 mmHg 62%
    23:00 +8°C° 0 mm 2 mps 766 mmHg 65%

    Tomorrow, 21 September, Saturday

    Time Temperature Precipitation Wind Pressure Humidity
    00:00 +7°C° 0 mm 2 mps 766 mmHg 66%
    01:00 +7°C° 0 mm 2 mps 765 mmHg 68%
    02:00 +6°C° 0 mm 2 mps 765 mmHg 69%
    03:00 +6°C° 0 mm 2 mps 765 mmHg 71%
    04:00 +6°C° 0 mm 2 mps 766 mmHg 73%
    05:00 +6°C° 0 mm 2 mps 766 mmHg 76%
    06:00 +7°C° 0 mm 2 mps 766 mmHg 73%
    07:00 +9°C° 0 mm 3 mps 766 mmHg 71%
    08:00 +11°C° 0 mm 3 mps 766 mmHg 69%
    09:00 +13°C° 0 mm 3 mps 766 mmHg 64%
    10:00 +16°C° 0 mm 3 mps 766 mmHg 59%
    11:00 +18°C° 0 mm 3 mps 766 mmHg 54%
    12:00 +19°C° 0 mm 3 mps 765 mmHg 52%
    13:00 +20°C° 0 mm 3 mps 765 mmHg 50%
    14:00 +21°C° 0 mm 3 mps 764 mmHg 49%
    15:00 +20°C° 0 mm 2 mps 764 mmHg 54%
    16:00 +19°C° 0 mm 2 mps 764 mmHg 59%
    17:00 +19°C° 0 mm 1 mps 764 mmHg 64%
    18:00 +16°C° 0 mm 1 mps 765 mmHg 67%
    19:00 +15°C° 0 mm 1 mps 765 mmHg 69%
    20:00 +13°C° 0 mm 1 mps 766 mmHg 72%
    21:00 +12°C° 0 mm 1 mps 766 mmHg 73%
    22:00 +12°C° 0 mm 1 mps 766 mmHg 73%
    23:00 +10°C° 0 mm 2 mps 767 mmHg 74%

    Day after tomorrow, 22 September, Sunday

    Time Temperature Precipitation Wind Pressure Humidity
    00:00 +11°C° 0 mm 1 mps 767 mmHg 77%
    01:00 +10°C° 0 mm 1 mps 767 mmHg 79%
    02:00 +10°C° 0 mm 1 mps 767 mmHg 81%
    03:00 +9°C° 0 mm 1 mps 767 mmHg 82%
    04:00 +9°C° 0 mm 1 mps 768 mmHg 83%
    05:00 +8°C° 0 mm 0 mps 768 mmHg 84%
    06:00 +11°C° 0 mm 1 mps 768 mmHg 81%
    07:00 +12°C° 0 mm 2 mps 769 mmHg 78%
    08:00 +14°C° 0 mm 2 mps 769 mmHg 75%
    09:00 +16°C° 0 mm 2 mps 769 mmHg 71%
    10:00 +18°C° 0 mm 3 mps 769 mmHg 67%
    11:00 +20°C° 0 mm 3 mps 769 mmHg 63%
    12:00 +20°C° 0 mm 3 mps 769 mmHg 61%
    13:00 +21°C° 0 mm 3 mps 769 mmHg 60%
    14:00 +21°C° 0 mm 4 mps 768 mmHg 58%
    15:00 +20°C° 0 mm 4 mps 768 mmHg 64%
    16:00 +19°C° 0 mm 4 mps 768 mmHg 70%
    17:00 +18°C° 0 mm 4 mps 767 mmHg 76%
    18:00 +15°C° 0 mm 4 mps 767 mmHg 79%
    19:00 +13°C° 0 mm 4 mps 767 mmHg 81%
    20:00 +11°C° 0 mm 4 mps 768 mmHg 84%
    21:00 +11°C° 0 mm 4 mps 768 mmHg 84%
    22:00 +10°C° 0 mm 4 mps 768 mmHg 85%
    23:00 +8°C° 0 mm 4 mps 768 mmHg 85%

    23 September, Monday

    Time Temperature Precipitation Wind Pressure Humidity
    00:00 +8°C° 0 mm 4 mps 767 mmHg 84%
    01:00 +7°C° 0 mm 4 mps 767 mmHg 83%
    02:00 +7°C° 0 mm 5 mps 767 mmHg 81%
    03:00 +6°C° 0 mm 4 mps 767 mmHg 78%
    04:00 +5°C° 0 mm 4 mps 767 mmHg 74%
    05:00 +5°C° 0 mm 4 mps 767 mmHg 71%
    06:00 +6°C° 0 mm 4 mps 767 mmHg 70%
    07:00 +7°C° 0 mm 5 mps 767 mmHg 68%
    08:00 +8°C° 0 mm 5 mps 767 mmHg 67%
    09:00 +10°C° 0 mm 5 mps 767 mmHg 65%
    10:00 +14°C° 0 mm 4 mps 767 mmHg 62%
    11:00 +17°C° 0 mm 4 mps 766 mmHg 60%
    12:00 +18°C° 0 mm 3 mps 766 mmHg 60%
    13:00 +19°C° 0 mm 3 mps 765 mmHg 60%
    14:00 +20°C° 0 mm 2 mps 764 mmHg 60%
    15:00 +20°C° 0 mm 2 mps 764 mmHg 65%
    16:00 +19°C° 0 mm 2 mps 764 mmHg 71%
    17:00 +19°C° 0 mm 2 mps 764 mmHg 77%
    18:00 +17°C° 0 mm 2 mps 765 mmHg 82%
    19:00 +14°C° 0 mm 3 mps 765 mmHg 87%
    20:00 +13°C° 0 mm 3 mps 765 mmHg 93%
    21:00 +12°C° 0 mm 3 mps 766 mmHg 93%
    22:00 +13°C° 0 mm 2 mps 766 mmHg 92%
    23:00 +12°C° 0 mm 2 mps 766 mmHg 92%

    24 September, Tuesday

    Time Temperature Precipitation Wind Pressure Humidity
    00:00 +12°C° 0 mm 2 mps 766 mmHg 93%
    01:00 +10°C° 0 mm 2 mps 766 mmHg 93%
    02:00 +10°C° 0 mm 2 mps 766 mmHg 94%
    03:00 +9°C° 0 mm 2 mps 766 mmHg 94%
    04:00 +9°C° 0 mm 2 mps 766 mmHg 94%
    05:00 +9°C° 0 mm 2 mps 766 mmHg 95%
    06:00 +10°C° 0 mm 2 mps 766 mmHg 91%
    07:00 +13°C° 0 mm 2 mps 767 mmHg 87%
    08:00 +15°C° 0 mm 2 mps 767 mmHg 83%
    09:00 +16°C° 0 mm 2 mps 767 mmHg 76%
    10:00 +18°C° 0 mm 2 mps 767 mmHg 69%
    11:00 +20°C° 0 mm 3 mps 767 mmHg 62%
    12:00 +21°C° 0 mm 3 mps 766 mmHg 59%
    13:00 +21°C° 0 mm 3 mps 766 mmHg 57%
    14:00 +22°C° 0 mm 3 mps 765 mmHg 55%
    15:00 +21°C° 0 mm 2 mps 765 mmHg 60%
    16:00 +20°C° 0 mm 2 mps 765 mmHg 65%
    17:00 +19°C° 0 mm 2 mps 765 mmHg 70%
    18:00 +18°C° 0 mm 2 mps 766 mmHg 73%
    19:00 +16°C° 0 mm 2 mps 766 mmHg 77%
    20:00 +14°C° 0 mm 2 mps 766 mmHg 80%
    21:00 +13°C° 0 mm 2 mps 766 mmHg 81%
    22:00 +13°C° 0 mm 2 mps 766 mmHg 82%
    23:00 +12°C° 0 mm 2 mps 766 mmHg 82%

    25 September, Wednesday

    Time Temperature Precipitation Wind Pressure Humidity
    00:00 +12°C° 0 mm 2 mps 766 mmHg 83%
    01:00 +10°C° 0 mm 2 mps 767 mmHg 83%
    02:00 +10°C° 0 mm 2 mps 767 mmHg 83%
    03:00 +10°C° 0 mm 2 mps 767 mmHg 85%
    04:00 +9°C° 0 mm 2 mps 767 mmHg 86%
    05:00 +10°C° 0 mm 1 mps 767 mmHg 88%
    06:00 +12°C° 0 mm 1 mps 767 mmHg 84%
    07:00 +14°C° 0 mm 1 mps 767 mmHg 81%
    08:00 +16°C° 0 mm 1 mps 767 mmHg 77%
    09:00 +19°C° 0 mm 1 mps 767 mmHg 71%
    10:00 +21°C° 0 mm 1 mps 767 mmHg 65%
    11:00 +23°C° 0 mm 1 mps 767 mmHg 59%
    12:00 +23°C° 0 mm 1 mps 767 mmHg 56%
    13:00 +24°C° 0 mm 1 mps 766 mmHg 54%
    14:00 +24°C° 0 mm 1 mps 766 mmHg 52%
    15:00 +23°C° 0 mm 1 mps 765 mmHg 57%
    16:00 +23°C° 0 mm 1 mps 765 mmHg 63%
    17:00 +21°C° 0 mm 2 mps 765 mmHg 68%
    18:00 +19°C° 0 mm 2 mps 765 mmHg 72%
    19:00 +17°C° 0 mm 2 mps 765 mmHg 76%
    20:00 +14°C° 0 mm 3 mps 765 mmHg 80%
    21:00 +14°C° 0 mm 3 mps 765 mmHg 82%
    22:00 +13°C° 0 mm 3 mps 765 mmHg 84%
    23:00 +13°C° 0 mm 3 mps 765 mmHg 87%
    Show more